Meteo Giornale » Osservazioni meteo Stati Uniti (USA) » Belmar-Farmdale

ore: 07:56 - Osservazioni Meteo Belmar-Farmdale
Lat. 40° 11' N Lon. 74° 8' W Alt. 48 metri s.l.m.

coperto America/New_York

23 °C

Coperto

Temp. 24 Ore

21 °C

24 °C

Sud/Sud-Est

9.3 Km/h

Dew point 23 °C

Umidità 100 %

Visibilità  10 Km

Il sole sorge alle ore 06:43

Il sole tramonta alle ore 18:54

Data e Ora Cielo e Fenomeni T °C DP °C Um. % Pres. hPa Vis. km Vento km/h
Oggi h: 07:56 coperto Coperto 23 23 100 1021 10 S/SE 9.3
Oggi h: 06:56 coperto Coperto 22 22 100 1021 10 S/SE 11.1
Oggi h: 05:56 coperto Coperto 22 22 100 1021 10 S/SE 11.1
Oggi h: 04:56 coperto Coperto 22 22 100 1021 10 SE 11.1
Oggi h: 03:56 coperto Coperto 22 22 100 1021 10 SE 11.1
Oggi h: 02:56 coperto Coperto 22 22 100 1022 10 SE 13
Oggi h: 01:56 coperto Coperto 22 22 100 1023 10 SE 11.1
Oggi h: 00:56 coperto Coperto 22 22 100 1023 13 SE 13
Ieri h: 22:56 coperto Coperto 22 22 100 1024 14 SE 9.3
Ieri h: 22:36 coperto Coperto 22 22 100 1024 11 E 9.3
Ieri h: 21:19 coperto Coperto 21 21 100 1025 10 N 5.5
Ieri h: 20:56 coperto Coperto 21 21 100 1025 10 N 5.5
Ieri h: 20:49 coperto Coperto 21 21 100 1025 10 N 5.5
Ieri h: 20:32 coperto Coperto 21 21 100 1025 10 E/NE 9.3
Ieri h: 19:56 coperto_pioggia Pioggia Debole 21 21 100 1025 13 E 9.3
Ieri h: 19:37 coperto_pioggia Pioggia Debole 22 21 94 1025 13 E 13
Ieri h: 18:49 coperto Coperto 22 21 94 1025 10 E 13
Ieri h: 17:56 poco_nuvoloso Poco Nuvoloso 23 21 88 1025 10 E 9.3
Ieri h: 16:56 nuvoloso Nuvoloso 24 19 73 1026 10 E 13
Ieri h: 16:12 poco_nuvoloso Poco Nuvoloso 24 19 73 1026 10 E/SE 16.7
Ieri h: 16:03 molto_nuvoloso Molto Nuvoloso 24 20 78 1026 10 E 13
Ieri h: 15:56 nuvoloso Nuvoloso 24 19 73 1026 10 E 18.5
Ieri h: 15:51 nuvoloso Nuvoloso 24 19 73 1026 10 E 16.7
Ieri h: 15:11 molto_nuvoloso Molto Nuvoloso 24 20 78 1026 10 E 14.8
Ieri h: 14:56 molto_nuvoloso Molto Nuvoloso 23 19 78 1026 10 E 14.8
Ieri h: 13:56 molto_nuvoloso Molto Nuvoloso 23 19 78 1027 10 E/NE 16.7
Ieri h: 12:56 molto_nuvoloso Molto Nuvoloso 23 19 78 1027 10 E 16.7
Ieri h: 12:42 molto_nuvoloso Molto Nuvoloso 22 19 83 1027 10 N 9.3
Ieri h: 11:56 coperto Coperto 23 19 78 1027 10 E 13
Ieri h: 09:56 molto_nuvoloso Molto Nuvoloso 22 18 78 1028 10 E/NE 18.5
Ieri h: 09:49 molto_nuvoloso Molto Nuvoloso 21 18 82 1028 10 NE 14.8
Ieri h: 09:41 molto_nuvoloso Molto Nuvoloso 21 17 77 1028 10 E 9.3
Ieri h: 08:56 molto_nuvoloso Molto Nuvoloso 21 18 82 1028 10 E 9.3